Weather in Sur

Lebanon     33°16′04″N   35°13′16″E
temp.,
°C
wind,
m/s
gust,
m/s
humid.,
%
clouds,
%
prec.,
mm/h
press.,
hPa
HPBL,
m
22 january, fri
fri2223:00+9ene22620 0.0 1030185
02:00+9e22590 0.0 1028122
05:00+8e44520 0.0 1028156
08:00+10e48500 0.0 1028286
11:00+14ese911400 0.0 1028868
14:00+15ene57440 0.0 1025896
17:00+11nne44697 0.0 1024315
20:00+10ene236221 0.0 1024227
23 january, sat
sat2323:00+9ese33432 0.0 102486
02:00+9e453818 0.0 1022150
05:00+10e4634100 0.0 1022196
08:00+11ese71336100 0.0 1023364
11:00+15e4734100 0.0 1022718
14:00+16n234275 0.0 1020709
17:00+12n22640 0.0 1020241
20:00+11e22480 0.0 1021133
24 january, sun
sun2423:00+11e34380 0.0 1021104
02:00+12ese59320 0.0 1020209
05:00+11e343530 0.0 1020144
08:00+12e234365 0.0 1021124
11:00+16se3633100 0.0 1021543
14:00+16wnw3240100 0.0 1019494
17:00+13n225364 0.0 1019310
20:00+12ene236032 0.0 1021214
25 january, mon
mon2523:00+11ene12530 0.0 1020150
02:00+10ne11450 0.0 1020120
05:00+10ene22460 0.0 1019174
08:00+13ese11510 0.0 102196
11:00+16w224038 0.0 1021400
14:00+16wnw215219 0.0 1020495
17:00+13n23660 0.0 1020274
20:00+12ne22740 0.0 1021230
26 january, tue
tue2623:00+12ene227171 0.0 1021191
02:00+11ne116686 0.0 1020152
05:00+11ne1262100 0.0 1020176
08:00+13ne1264100 0.0 1021174
11:00+17nw114355 0.0 1020316
14:00+16n335761 0.0 1018465
17:00+14nne2372100 0.0 1017186
20:00+13ene2371100 0.0 1017144